Location: Ballingbuur
(53.0000°N, 5.7667°E)
Time: 07:07:33
(UTC+00:00)

SMAP - Pass Details

Date: 29 November 2020
Orbit: 681 x 683 km, 98.1° (Epoch: 22 January)

Event Time Altitude Azimuth Distance (km) Brightness Sun altitude
Rises 06:16:48 0° 14° (NNE) 3,062 6.3 -9.7°
Reaches altitude 10° 06:19:03 10° 14° (NNE) 2,142 5.5 -9.4°
Maximum altitude 06:23:45 84° 288° (WNW) 696 3.0 -8.8°
Drops below altitude 10° 06:28:24 10° 200° (SSW) 2,124 5.7 -8.1°
Sets 06:30:38 0° 199° (SSW) 3,034 6.5 -7.8°
